Location: Exeidioux
(45.6312°N, 1.6819°E)
Time: 13:39:45
(UTC+00:00)

OBJECT-B - Pass Details

Date: 03 March 2021
Orbit: 414 x 427 km, 97.0° (Epoch: 09 April)

Event Time Altitude Azimuth Distance (km) Brightness Sun altitude
Exits shadow 19:37:55 32° 6° (N) 751 2.0 -20.8°
Drops below altitude 10° 19:39:50 10° 355° (N) 1,514 3.8 -21.1°
Sets 19:41:51 0° 352° (N) 2,381 4.9 -21.4°
